Location: Dompnac
(44.5644°N, 4.1026°E)
Time: 21:06:38
(UTC+00:00)

In-Cosmos 22 - Pass Details

Date: 19 September 2020
Orbit: 785 x 876 km, 81.2° (Epoch: 27 October)

Event Time Altitude Azimuth Distance (km) Brightness Sun altitude
Rises 18:51:12 0° 353° (N) 3,287 7.6 -12.3°
Reaches altitude 10° 18:53:38 10° 358° (N) 2,356 6.7 -12.7°
Maximum altitude 18:58:50 55° 76° (ENE) 954 4.2 -13.6°
Drops below altitude 10° 19:04:03 10° 154° (SSE) 2,371 6.1 -14.5°
Enters shadow 19:04:23 - 155° (SSE) 2,499 6.3 -14.6°
